Tracking 31032 objects as of 13-Jul-2025
HD Live streaming from Space Station
objects crossing your sky now

CZ-6A DEB

Track CZ-6A DEB now!
10-day predictions


NORAD ID: 55871
Int'l Code: 2022-151ZT
Perigee: 812.9 km
Apogee: 847.7 km
Inclination: 98.8 °
Period: 101.4 minutes
Semi major axis: 7201 km
RCS: Unknown
Launch date: November 11, 2022
Source: People's Republic of China (PRC)
Launch site: Taiyaun Space Center, China (TSC)

Note: This is SATELLITE DEBRIS
Your satellite tracking list
Your tracking list is empty




NASA's NSSDC Master Catalog

Two Line Element Set (TLE):
1 55871U 22151ZT  25194.00243657  .00001548  00000-0  73725-3 0  9990
2 55871  98.8068 204.6226 0024145 172.7102 187.4430 14.20652068125701
Source of the keplerian elements: AFSPC